EW4529 Weather Reports


Display with metric or nautical units.
time (UTC)temp
F
wind
direction
speed
MPH
gust
MPH
rain 1hr
in
rain 24hr
in
rain mn
in
humidity
%
barometer
mb
20260901133330 79 141 0.0 1.0 0.00 0.00 0.00 87 1016.0
20260901132328 79 157 0.0 2.0 0.00 0.00 0.00 88 1016.0
20260901131329 79 317 0.0 0.0 0.00 0.00 0.00 87 1016.1
20260901130401 79 157 0.0 1.0 0.00 0.00 0.00 88 1016.1
20260901125315 79 146 0.0 3.0 0.00 0.00 0.00 88 1016.2
20260901124314 79 117 0.0 1.0 0.00 0.00 0.00 91 1016.1
20260901123331 77 300 0.0 2.0 0.00 0.00 0.00 94 1016.2
20260901122328 76 351 0.0 1.0 0.00 0.00 0.00 96 1016.4
20260901121346 75 137 0.0 1.0 0.00 0.00 0.00 97 1016.3
20260901120317 74 154 0.0 2.0 0.00 0.00 0.00 97 1016.4
20260901115314 73 141 0.0 1.0 0.00 0.00 0.00 97 1016.4
20260901114318 73 106 0.0 0.0 0.00 0.00 0.00 97 1016.5
20260901113316 72 106 0.0 0.0 0.00 0.00 0.00 97 1016.7
20260901112317 72 106 0.0 0.0 0.00 0.00 0.00 97 1016.6
20260901111319 72 106 0.0 1.0 0.00 0.00 0.00 97 1016.4
20260901110317 72 106 0.0 0.0 0.00 0.00 0.00 97 1016.5
20260901105324 72 106 0.0 0.0 0.00 0.00 0.00 97 1016.4
20260901104320 71 106 0.0 0.0 0.00 0.00 0.00 97 1016.4
20260901103341 72 106 0.0 0.0 0.00 0.00 0.00 97 1016.4
20260901102342 72 106 0.0 0.0 0.00 0.00 0.00 97 1016.5
20260901101343 72 106 0.0 0.0 0.00 0.00 0.00 97 1016.5
20260901100320 72 106 0.0 0.0 0.00 0.00 0.00 97 1016.4
20260901095315 72 106 0.0 0.0 0.00 0.00 0.00 97 1016.5
20260901094316 73 106 0.0 0.0 0.00 0.00 0.00 97 1016.3
20260901093318 72 106 0.0 0.0 0.00 0.00 0.00 97 1016.2
20260901092311 73 106 0.0 0.0 0.00 0.00 0.00 97 1016.3
20260901091310 73 106 0.0 0.0 0.00 0.00 0.00 97 1016.5
20260901090310 73 106 0.0 0.0 0.00 0.00 0.00 96 1016.7
20260901085333 73 106 0.0 0.0 0.00 0.00 0.00 96 1016.7
20260901084334 73 106 0.0 0.0 0.00 0.00 0.00 96 1016.7
20260901083311 73 106 0.0 0.0 0.00 0.00 0.00 96 1016.7
20260901082341 73 106 0.0 0.0 0.00 0.00 0.00 96 1016.8
20260901081343 73 106 0.0 0.0 0.00 0.00 0.00 96 1016.7
20260901080338 73 106 0.0 0.0 0.00 0.00 0.00 96 1016.5
20260901075318 73 106 0.0 0.0 0.00 0.00 0.00 96 1016.6
20260901074321 73 106 0.0 1.0 0.00 0.00 0.00 96 1016.7
20260901073318 73 39 0.0 0.0 0.00 0.00 0.00 96 1016.7
20260901072320 73 40 0.0 0.0 0.00 0.00 0.00 96 1016.6
20260901071318 73 40 0.0 1.0 0.00 0.00 0.00 96 1016.7
20260901070339 73 164 0.0 0.0 0.00 0.00 0.00 96 1016.8
20260901065318 73 164 0.0 0.0 0.00 0.00 0.00 95 1017.0
20260901064314 73 164 0.0 0.0 0.00 0.00 0.00 95 1017.0
20260901063334 73 164 0.0 0.0 0.00 0.00 0.00 95 1017.1
20260901062315 73 165 0.0 1.0 0.00 0.00 0.00 95 1017.2
20260901061316 74 122 0.0 1.0 0.00 0.00 0.00 95 1017.3
20260901060309 74 218 0.0 2.0 0.00 0.00 0.00 94 1017.3
20260901055311 74 131 0.0 1.0 0.00 0.00 0.00 94 1017.2
20260901054310 74 124 0.0 1.0 0.00 0.00 0.00 94 1017.4
20260901053331 74 117 0.0 3.0 0.00 0.00 0.00 94 1017.5
20260901052333 74 114 0.0 1.0 0.00 0.00 0.00 94 1017.6
20260901051328 74 71 0.0 0.0 0.00 0.00 0.00 93 1017.6
20260901050346 74 356 0.0 1.0 0.00 0.00 0.00 93 1017.7
20260901045344 74 113 0.0 0.0 0.00 0.00 0.00 93 1017.7
20260901044351 74 113 0.0 1.0 0.00 0.00 0.00 93 1017.9
20260901043324 74 112 0.0 3.0 0.00 0.00 0.00 93 1018.1
20260901042324 74 154 0.0 0.0 0.00 0.00 0.00 92 1018.3
20260901041319 74 154 0.0 0.0 0.00 0.00 0.00 92 1018.3
20260901040320 74 351 0.0 1.0 0.00 0.00 0.00 92 1018.2
20260901035341 74 337 0.0 1.0 0.00 0.00 0.00 92 1018.3
20260901034325 74 139 0.0 0.0 0.00 0.00 0.00 92 1018.3
20260901033324 74 139 0.0 1.0 0.00 0.00 0.00 92 1018.3
20260901032328 74 151 0.0 1.0 0.00 0.00 0.00 92 1018.3
20260901031329 74 117 1.0 2.0 0.00 0.00 0.00 92 1018.5
20260901030353 74 103 0.0 1.0 0.00 0.00 0.00 92 1018.4
20260901025327 73 73 0.0 2.0 0.00 0.00 0.00 91 1018.4
20260901024309 72 115 0.0 3.0 0.00 0.00 0.00 91 1018.4
20260901023335 71 13 0.0 1.0 0.00 0.00 0.00 92 1018.4
20260901022334 71 13 0.0 0.0 0.00 0.00 0.00 92 1018.4
20260901021313 71 13 0.0 0.0 0.00 0.00 0.00 91 1018.5
20260901020310 71 14 0.0 0.0 0.00 0.00 0.00 91 1018.5
20260901015312 71 14 0.0 0.0 0.00 0.00 0.00 91 1018.5
20260901014318 71 13 0.0 0.0 0.00 0.00 0.00 90 1018.5
20260901013316 72 14 0.0 0.0 0.00 0.00 0.00 90 1018.4
20260901012326 72 14 0.0 0.0 0.00 0.00 0.00 89 1018.4
20260901011329 72 13 0.0 0.0 0.00 0.00 0.00 88 1018.4
20260901010330 72 13 0.0 0.0 0.00 0.00 0.00 87 1018.3
20260901005313 72 14 0.0 0.0 0.00 0.00 0.00 86 1018.3
20260901004315 73 14 0.0 0.0 0.00 0.00 0.00 86 1018.3
20260901003313 73 14 0.0 0.0 0.00 0.00 0.00 86 1018.3
20260901002314 73 14 0.0 0.0 0.00 0.00 0.00 85 1018.1
20260901001318 73 13 0.0 0.0 0.00 0.00 0.00 84 1017.9
20260901000314 74 13 0.0 0.0 0.00 0.00 0.00 83 1017.9
20260831235332 74 13 0.0 0.0 0.00 0.00 0.00 82 1018.0
20260831234311 75 14 0.0 0.0 0.00 0.00 0.00 81 1018.0
20260831233311 76 13 0.0 0.0 0.00 0.00 0.00 79 1018.1
20260831232335 76 13 0.0 0.0 0.00 0.00 0.00 78 1018.1
20260831231314 77 13 0.0 0.0 0.00 0.00 0.00 76 1018.2
20260831230311 78 13 0.0 0.0 0.00 0.00 0.00 75 1018.3
20260831225317 78 13 0.0 0.0 0.00 0.00 0.00 73 1018.4
20260831224318 79 14 0.0 0.0 0.00 0.00 0.00 72 1018.4
20260831223316 79 13 0.0 0.0 0.00 0.00 0.00 71 1018.4
20260831222320 79 13 0.0 0.0 0.00 0.00 0.00 73 1018.5
20260831221320 79 14 0.0 0.0 0.00 0.00 0.00 72 1018.5
20260831220313 79 16 0.0 1.0 0.00 0.00 0.00 72 1018.8
20260831215321 79 43 0.0 0.0 0.00 0.00 0.00 74 1018.8
20260831214322 79 347 0.0 1.0 0.00 0.00 0.00 71 1018.8
20260831213321 79 342 0.0 1.0 0.00 0.00 0.00 74 1018.9
20260831212324 79 17 0.0 1.0 0.00 0.00 0.00 74 1018.9
20260831211325 79 342 0.0 0.0 0.00 0.00 0.00 72 1018.8
20260831210323 79 26 0.0 0.0 0.00 0.00 0.00 73 1018.9
20260831205310 79 26 0.0 1.0 0.00 0.00 0.00 71 1018.9
20260831204313 80 356 0.0 0.0 0.00 0.00 0.00 71 1019.0
20260831203310 80 356 0.0 1.0 0.00 0.00 0.00 71 1019.1
20260831202315 80 3 0.0 0.0 0.00 0.00 0.00 69 1019.1
20260831201319 80 359 0.0 2.0 0.00 0.00 0.00 68 1019.1
20260831200318 80 50 0.0 2.0 0.00 0.00 0.00 70 1019.0
20260831195320 80 101 0.0 1.0 0.00 0.00 0.00 70 1019.2
20260831194342 80 5 0.0 1.0 0.00 0.00 0.00 69 1019.4
20260831193329 80 4 0.0 1.0 0.00 0.00 0.00 68 1019.4
20260831192324 81 4 0.0 0.0 0.00 0.00 0.00 66 1019.5
20260831191327 81 4 0.0 0.0 0.00 0.00 0.00 66 1019.5
20260831190333 82 6 0.0 0.0 0.00 0.00 0.00 66 1019.7
20260831185310 82 349 0.0 2.0 0.00 0.00 0.00 63 1019.7
20260831184339 82 307 0.0 0.0 0.00 0.00 0.00 63 1019.9
20260831183312 82 305 0.0 1.0 0.00 0.00 0.00 61 1019.8
20260831182319 82 19 0.0 1.0 0.00 0.00 0.00 61 1019.8
20260831181341 82 5 0.0 1.0 0.00 0.00 0.00 60 1019.8
20260831180317 83 4 0.0 2.0 0.00 0.00 0.00 59 1019.8
20260831175318 83 145 0.0 1.0 0.00 0.00 0.00 59 1020.0
20260831174321 84 134 0.0 2.0 0.00 0.00 0.00 58 1020.0
20260831173313 84 151 0.0 4.0 0.00 0.00 0.00 56 1020.1
20260831172334 84 23 1.0 3.0 0.00 0.00 0.00 57 1020.0
20260831171316 83 290 1.0 3.0 0.00 0.00 0.00 57 1020.0
20260831170317 83 291 0.0 4.0 0.00 0.00 0.00 60 1020.1
20260831165312 84 326 1.0 4.0 0.00 0.00 0.00 60 1020.1
20260831164337 83 108 0.0 3.0 0.00 0.00 0.00 62 1020.1
20260831163327 81 132 0.0 3.0 0.00 0.00 0.00 62 1020.3
20260831162326 80 352 1.0 3.0 0.00 0.00 0.00 63 1020.4
20260831161322 79 137 2.0 3.0 0.00 0.00 0.00 67 1020.3
20260831160317 78 162 0.0 2.0 0.00 0.00 0.00 69 1020.3
20260831155319 78 360 0.0 2.0 0.00 0.00 0.00 68 1020.3
20260831154317 78 342 0.0 3.0 0.00 0.00 0.00 69 1020.3
20260831153322 77 145 0.0 2.0 0.00 0.00 0.00 70 1020.3
20260831152323 77 336 0.0 2.0 0.00 0.00 0.00 70 1020.4
20260831151315 77 130 0.0 2.0 0.00 0.00 0.00 73 1020.3
20260831150334 76 134 0.0 2.0 0.00 0.00 0.00 73 1020.6
20260831145313 75 151 0.0 2.0 0.00 0.00 0.00 75 1020.7
20260831144314 75 326 0.0 0.0 0.00 0.00 0.00 74 1020.9
20260831143310 75 326 0.0 1.0 0.00 0.00 0.00 76 1020.6
20260831142311 75 44 0.0 1.0 0.00 0.00 0.00 75 1020.5
20260831141314 75 360 0.0 1.0 0.00 0.00 0.00 74 1020.6
20260831140310 75 111 0.0 2.0 0.00 0.00 0.00 74 1020.6
20260831135312 75 8 1.0 2.0 0.00 0.00 0.00 74 1020.6
20260831134312 75 150 0.0 2.0 0.00 0.00 0.00 74 1020.5